Wind_Speed
21 22 25 15 16 15 15 12 13 13 14 18 18 20 21 22 24 26 26 25 28 28 28 29 29 27 24 22 22 24 24 22 25 26 26 25 23 20 19 20 21 21 26 29
19 24 16 18 17 15 15 14 15 14 14 16 21 28 27 27 28 29 29 29 30 31 34 34 32 30 25 26 26 25 25 26 30 29 27 25 24 22 20 20 21 25 28 33
17 7 6 17 18 17 14 15 12 14 16 19 24 34 28 21 20 20 24 24 24 23 22 25 26 23 23 22 23 24 26 28 30 27 26 25 24 21 20 22 24 30 36 41
10 12 10 10 17 15 17 13 11 12 12 11 17 11 32 24 20 20 19 17 19 21 23 21 19 22 24 23 22 25 28 29 28 26 26 25 24 23 24 26 30 36 46 47
3 5 13 12 15 14 14 13 12 14 17 23 25 12 21 23 24 10 11 13 16 24 25 22 20 20 21 22 22 23 24 26 26 26 27 26 26 26 28 31 35 47 47 50
8 9 11 12 9 9 10 13 16 20 21 6 21 17 12 9 7 9 16 23 30 33 25 22 22 21 22 24 25 25 24 24 25 27 28 27 28 31 33 37 47 49 50 54
10 14 12 11 11 12 15 15 6 4 1 6 10 9 21 12 17 18 26 28 30 23 18 17 17 19 22 25 26 25 25 26 28 28 29 31 34 37 42 47 52 49 54 46
9 8 19 17 18 19 17 15 9 6 4 7 15 11 14 13 30 29 27 21 24 21 15 15 17 19 22 25 26 26 27 28 28 30 32 35 38 43 46 47 49 54 44 39
9 14 16 14 15 14 16 20 18 23 26 9 14 28 30 32 19 19 12 23 20 21 17 18 23 23 23 25 26 28 28 29 30 33 36 41 44 46 44 47 50 41 38 36
15 17 25 18 17 17 17 12 8 8 4 6 9 18 21 24 25 16 20 28 22 19 20 24 24 24 26 27 28 29 32 32 37 42 43 44 43 43 46 47 40 39 41 41
24 26 25 26 29 29 23 24 22 21 21 4 6 12 7 11 17 21 31 30 21 23 23 24 24 25 27 30 34 34 35 38 40 41 40 41 43 44 43 40 40 42 43 44
21 25 26 32 31 30 34 35 32 28 14 15 20 46 33 28 31 27 24 20 25 27 28 25 26 29 33 35 36 36 38 41 40 39 40 42 40 41 39 41 44 45 47 44
24 19 17 16 23 30 31 33 34 32 31 31 19 34 11 16 22 28 32 31 28 25 28 29 32 34 35 36 37 39 41 40 40 43 39 42 44 39 42 46 47 49 46 40
31 33 31 29 23 18 30 45 45 37 34 33 54 64 57 54 54 52 49 40 40 40 39 35 36 35 36 36 38 40 40 41 40 39 47 43 40 43 47 49 51 48 44 42
33 44 42 45 41 37 40 45 39 38 44 38 61 49 65 59 60 63 57 51 44 35 35 36 38 36 38 38 40 40 41 40 45 44 40 40 43 49 53 55 55 51 47 39
45 49 40 57 50 48 54 64 49 49 50 55 59 74 64 53 55 49 46 43 38 42 45 38 38 38 40 43 42 43 43 41 42 41 42 44 48 52 55 54 51 48 43 37
45 44 38 52 38 34 32 67 54 59 56 58 61 65 48 47 37 38 33 29 30 32 33 34 42 46 46 43 44 41 42 42 40 41 44 49 53 57 55 53 50 48 42 39
51 46 45 40 24 14 60 53 40 31 42 38 47 47 36 35 38 37 32 29 30 30 32 32 38 40 42 42 42 41 39 38 40 43 49 53 56 53 50 48 48 44 39 35
60 47 32 22 29 35 54 36 39 40 54 43 41 45 34 27 30 41 35 34 33 33 30 30 31 34 38 41 39 37 37 38 42 47 51 52 49 48 46 44 40 36 29 30
56 58 52 28 7 12 39 27 31 20 46 40 31 27 26 21 28 36 32 31 30 27 27 27 28 30 34 37 37 35 35 39 44 45 46 43 42 41 43 41 37 27 24 22
33 48 50 48 27 26 48 35 20 19 41 35 33 32 25 27 29 30 30 30 29 27 27 27 27 32 34 33 33 33 37 38 41 41 37 35 36 38 36 31 29 24 20 24
34 26 31 33 25 20 43 35 40 48 42 38 32 32 29 31 28 28 28 27 26 28 29 28 28 29 30 31 33 35 38 39 36 34 32 33 35 33 29 28 29 21 21 21
31 44 32 32 27 34 35 29 27 28 27 29 29 32 37 33 32 31 27 24 26 29 31 29 28 29 31 33 37 35 34 34 33 33 31 32 32 28 29 26 21 22 21 22
39 42 43 45 53 49 46 43 38 35 36 44 42 39 33 31 31 30 26 27 29 29 28 28 30 32 33 32 32 32 33 34 34 31 29 29 29 26 25 20 18 18 16 15
38 38 45 51 52 47 43 38 40 40 40 40 28 28 27 29 29 28 25 26 27 28 31 33 31 32 30 31 31 32 34 35 32 28 28 28 29 26 24 17 13 13 14 13
37 36 38 41 33 34 38 32 31 33 23 23 25 27 29 29 29 28 28 29 32 30 28 29 27 28 30 31 32 33 33 30 26 24 23 24 27 29 23 21 17 16 13 13
Wind_Direction
238 246 251 264 268 256 254 269 274 261 292 286 285 269 261 267 269 278 283 279 277 277 272 272 271 278 271 272 273 266 270 268 279 284 284 283 289 283 282 290 290 300 307 304
241 247 264 250 248 240 247 267 272 286 285 290 286 276 272 271 276 279 280 276 273 275 277 278 276 279 271 266 268 264 265 272 270 270 272 279 282 277 274 284 297 308 308 312
241 238 260 240 229 224 241 258 277 289 291 289 299 285 286 287 284 281 284 286 280 285 290 277 274 268 270 270 269 263 257 258 261 264 266 267 269 269 276 290 302 311 313 313
259 241 232 217 216 227 249 266 276 291 297 296 297 286 291 297 300 299 282 281 292 294 293 294 287 278 278 277 270 262 252 254 256 259 264 264 265 271 284 295 302 306 315 312
257 233 205 218 218 228 258 275 284 289 289 297 290 265 286 293 302 292 259 267 283 292 285 289 286 279 276 276 269 260 252 250 258 268 269 268 273 280 291 297 303 314 315 312
223 192 212 226 234 240 249 274 286 285 281 271 285 236 277 288 288 289 287 277 290 299 295 283 281 284 285 283 278 271 264 269 274 273 271 272 277 286 295 302 309 312 313 312
250 227 226 224 237 243 248 267 310 309 270 233 303 219 252 264 288 298 299 295 300 302 292 282 290 292 289 283 278 275 275 279 278 272 276 281 286 291 298 304 306 307 311 304
222 247 234 235 247 255 256 254 217 241 234 261 280 257 266 272 292 297 294 297 305 298 291 290 288 285 284 276 274 275 281 287 285 287 286 286 289 294 297 300 302 309 303 303
218 239 239 238 246 244 235 232 253 255 268 279 251 259 260 276 282 301 284 305 298 286 291 299 296 284 277 272 276 283 287 290 289 287 286 293 293 291 294 301 307 301 308 311
246 251 257 252 247 232 235 250 228 220 278 265 254 258 245 266 287 271 286 305 289 276 283 297 290 282 276 276 280 285 288 290 294 291 288 286 286 290 298 300 300 310 318 316
242 249 252 255 244 238 235 238 238 254 246 242 302 257 273 270 287 276 286 294 276 272 280 290 276 269 270 277 283 285 283 286 282 278 279 282 290 299 297 300 309 312 317 314
250 253 253 258 259 251 245 249 249 236 245 247 265 270 271 270 286 282 287 280 274 276 288 279 268 268 272 274 276 279 281 278 276 279 287 295 298 295 298 304 309 310 311 308
262 252 254 253 240 239 240 240 242 242 245 251 249 263 237 306 281 281 287 286 277 278 285 274 270 273 274 273 276 278 275 276 284 288 292 296 295 293 300 305 308 307 304 298
255 255 253 251 251 244 241 250 250 249 248 257 251 270 267 273 276 284 288 281 277 281 283 277 272 271 270 275 277 273 275 284 286 288 295 292 294 299 302 307 310 306 301 294
248 255 258 259 258 253 257 262 253 247 254 243 267 264 275 279 285 289 290 284 281 269 280 275 273 268 272 274 271 273 283 285 288 286 284 288 293 298 304 310 310 305 301 293
252 254 252 261 256 261 264 259 257 254 253 256 261 269 276 286 291 290 290 288 279 273 274 272 267 270 272 272 271 277 284 279 278 279 286 293 298 305 311 309 306 302 295 284
247 243 247 257 255 256 256 258 253 261 259 253 255 272 293 284 287 290 287 280 278 274 268 260 262 267 271 267 272 277 277 274 276 281 289 296 305 309 308 306 304 298 290 278
249 249 242 252 254 229 254 258 262 259 266 261 269 276 284 289 291 282 272 276 279 278 276 269 263 260 261 266 273 271 270 274 279 288 298 307 307 306 306 304 300 296 296 282
247 248 241 236 238 254 262 253 255 255 276 274 274 281 289 295 277 270 279 281 277 278 274 269 262 260 265 269 268 269 273 280 291 299 304 304 304 304 305 304 301 297 292 286
245 252 239 238 223 234 268 268 258 257 268 281 285 288 292 272 268 286 293 281 277 276 274 270 267 267 268 263 264 269 283 294 297 301 301 302 303 305 305 308 302 291 282 289
218 224 227 239 239 249 254 259 260 231 263 279 286 292 285 283 287 288 289 287 284 280 274 272 265 256 251 255 266 280 289 300 300 299 301 302 305 309 312 319 321 303 296 277
224 212 223 232 240 250 258 251 244 265 275 284 283 285 284 292 284 292 292 288 286 278 274 266 254 250 258 265 275 288 302 297 296 300 301 303 307 308 311 313 317 308 285 287
220 226 228 226 241 255 264 265 264 270 263 270 274 273 282 284 282 288 289 280 270 269 263 260 260 263 270 282 294 301 293 292 297 299 299 302 305 303 304 309 303 305 297 287
239 245 244 252 257 254 254 261 262 263 262 279 273 278 280 282 287 288 283 272 268 260 259 263 269 278 289 299 299 293 292 295 297 294 294 297 300 297 300 302 290 308 307 305
246 255 255 250 256 256 259 254 268 264 265 266 275 280 280 282 278 274 261 252 253 258 262 269 278 292 299 292 289 292 293 294 293 290 292 290 295 285 288 276 289 300 295 298
241 241 244 252 259 265 267 264 261 261 274 278 273 275 272 268 259 254 247 247 250 261 267 279 296 292 289 287 289 292 292 289 288 290 296 294 294 287 260 254 262 285 284 288
Height
3113 3114 3113 3120 3120 3120 3121 3120 3119 3120 3120 3118 3117 3116 3117 3119 3117 3117 3118 3118 3116 3116 3117 3118 3119 3120 3121 3122 3122 3123 3123 3123 3123 3123 3122 3122 3120 3119 3120 3120 3120 3119 3118 3117
3110 3108 3114 3115 3117 3118 3118 3118 3119 3119 3118 3116 3113 3109 3111 3112 3111 3111 3111 3111 3110 3109 3108 3108 3110 3113 3114 3114 3116 3116 3117 3117 3117 3116 3116 3115 3114 3114 3114 3114 3113 3111 3110 3108
3106 3109 3109 3110 3114 3115 3116 3116 3116 3117 3115 3113 3110 3102 3104 3108 3107 3106 3104 3103 3103 3103 3102 3102 3103 3105 3106 3107 3108 3110 3110 3110 3110 3111 3110 3109 3108 3108 3108 3108 3107 3104 3102 3100
3104 3105 3107 3108 3111 3115 3115 3115 3114 3113 3113 3111 3110 3103 3099 3101 3100 3100 3099 3099 3098 3097 3095 3095 3096 3097 3099 3099 3101 3103 3104 3105 3105 3106 3106 3104 3103 3103 3102 3101 3099 3096 3092 3089
3105 3103 3105 3107 3109 3113 3114 3113 3112 3111 3109 3107 3104 3105 3092 3094 3094 3094 3094 3094 3093 3092 3091 3090 3089 3090 3091 3093 3096 3098 3099 3100 3101 3101 3099 3098 3098 3097 3096 3094 3092 3088 3084 3080
3104 3104 3105 3107 3109 3110 3111 3111 3110 3107 3106 3104 3096 3098 3087 3090 3090 3091 3092 3091 3088 3086 3085 3085 3085 3086 3087 3088 3090 3092 3095 3096 3096 3096 3095 3094 3093 3091 3089 3087 3084 3081 3078 3072
3102 3102 3103 3105 3107 3107 3108 3109 3108 3106 3103 3100 3093 3092 3082 3086 3087 3087 3086 3084 3082 3080 3080 3081 3082 3083 3085 3086 3087 3089 3091 3092 3091 3090 3090 3088 3087 3085 3083 3080 3076 3073 3069 3064
3098 3099 3100 3101 3103 3104 3104 3105 3107 3105 3102 3094 3093 3082 3074 3078 3081 3080 3079 3079 3078 3078 3078 3079 3080 3080 3081 3083 3084 3085 3087 3087 3086 3086 3085 3083 3082 3079 3074 3070 3066 3063 3059 3054
3093 3095 3096 3097 3098 3100 3098 3098 3100 3098 3093 3089 3080 3072 3069 3071 3071 3072 3073 3073 3072 3072 3073 3073 3074 3075 3076 3077 3078 3080 3080 3080 3080 3079 3077 3074 3070 3067 3064 3061 3057 3054 3049 3044
3090 3090 3092 3093 3094 3096 3095 3096 3096 3095 3093 3086 3068 3063 3061 3063 3064 3066 3067 3065 3065 3065 3066 3066 3067 3069 3070 3071 3071 3071 3071 3071 3070 3068 3065 3063 3060 3058 3055 3052 3049 3044 3039 3036
3086 3086 3086 3087 3087 3089 3091 3088 3089 3092 3089 3082 3073 3049 3054 3058 3060 3060 3060 3059 3060 3060 3060 3059 3059 3060 3062 3063 3063 3063 3062 3060 3059 3057 3055 3053 3051 3048 3044 3040 3035 3031 3027 3023
3082 3077 3075 3076 3079 3081 3080 3079 3082 3082 3080 3076 3073 3018 3048 3051 3054 3054 3054 3055 3055 3054 3055 3056 3057 3055 3054 3054 3054 3055 3053 3052 3049 3047 3046 3042 3039 3036 3032 3030 3026 3021 3017 3012
3075 3069 3068 3069 3075 3072 3071 3071 3072 3073 3072 3066 3071 3030 3043 3048 3050 3049 3049 3049 3046 3046 3047 3048 3048 3048 3046 3046 3046 3044 3043 3042 3041 3038 3033 3031 3028 3025 3022 3019 3015 3011 3007 3003
3067 3064 3061 3059 3063 3064 3062 3062 3064 3067 3064 3059 3039 3034 3040 3042 3042 3044 3043 3044 3042 3040 3039 3037 3037 3038 3037 3036 3036 3036 3035 3035 3030 3027 3026 3023 3020 3016 3013 3010 3006 2999 2993 2990
3057 3050 3056 3053 3056 3055 3053 3051 3054 3053 3051 3048 3026 3033 3020 3031 3032 3032 3033 3033 3032 3031 3031 3030 3030 3030 3028 3027 3027 3027 3027 3023 3022 3019 3017 3014 3011 3007 3003 2998 2993 2989 2985 2981
3045 3038 3044 3034 3045 3044 3040 3032 3038 3037 3039 3034 3030 3009 3022 3022 3023 3019 3019 3019 3017 3018 3021 3022 3023 3024 3022 3021 3018 3017 3015 3013 3009 3009 3008 3005 3001 2995 2990 2984 2980 2976 2973 2971
3034 3033 3033 3019 3034 3035 3025 2999 3018 3022 3025 3024 3015 3000 3010 3016 3014 3010 3010 3007 3007 3007 3007 3008 3009 3010 3011 3011 3009 3006 3003 3002 2999 2998 2997 2994 2989 2983 2978 2974 2969 2965 2963 2960
3017 3020 3022 3014 3022 3015 2984 2997 3001 3007 3006 3010 3002 3001 3003 3004 3004 3000 3001 3000 3000 3000 3000 2999 3001 3000 2999 3000 3001 2999 2996 2994 2992 2990 2987 2983 2977 2972 2968 2964 2958 2953 2949 2950
3006 3009 3007 3004 3003 2997 2978 2986 2992 2994 2984 2996 2996 2993 2993 2994 2992 2987 2993 2992 2991 2990 2990 2991 2991 2992 2993 2994 2991 2991 2990 2986 2984 2982 2977 2971 2966 2962 2958 2952 2947 2943 2940 2940
2993 2996 3000 2995 2989 2987 2973 2978 2985 2987 2977 2977 2984 2985 2986 2986 2983 2982 2985 2985 2982 2980 2981 2979 2979 2980 2980 2981 2981 2981 2981 2979 2976 2974 2964 2962 2957 2952 2948 2941 2935 2932 2932 2932
2975 2979 2979 2981 2977 2973 2973 2978 2981 2980 2966 2972 2976 2977 2977 2976 2977 2976 2975 2975 2974 2974 2971 2970 2970 2973 2971 2973 2973 2972 2972 2968 2964 2961 2955 2950 2947 2942 2938 2932 2928 2925 2925 2925
2964 2969 2967 2971 2969 2964 2962 2970 2968 2966 2967 2968 2968 2967 2966 2964 2966 2967 2968 2968 2968 2968 2969 2968 2966 2963 2968 2963 2963 2961 2959 2957 2953 2950 2945 2941 2937 2935 2931 2927 2925 2922 2920 2919
2951 2951 2955 2956 2951 2952 2952 2954 2956 2957 2960 2960 2960 2959 2958 2956 2956 2957 2958 2957 2959 2960 2960 2960 2959 2957 2958 2956 2955 2952 2949 2946 2944 2940 2935 2931 2928 2928 2926 2923 2921 2919 2917 2915
2938 2941 2940 2944 2938 2942 2946 2947 2946 2945 2948 2950 2949 2949 2947 2949 2948 2949 2948 2952 2953 2952 2954 2953 2950 2949 2948 2947 2944 2943 2940 2939 2937 2932 2928 2924 2920 2920 2920 2919 2917 2915 2914 2911
2928 2931 2928 2927 2928 2931 2936 2936 2936 2933 2933 2937 2939 2938 2939 2939 2939 2939 2939 2941 2944 2945 2944 2944 2941 2943 2940 2938 2936 2934 2933 2931 2928 2923 2920 2917 2914 2913 2914 2914 2914 2912 2911 2909
2913 2916 2919 2918 2922 2921 2922 2925 2925 2924 2926 2928 2930 2929 2932 2931 2930 2930 2930 2930 2929 2931 2932 2936 2935 2935 2933 2931 2928 2926 2923 2922 2920 2917 2912 2910 2906 2904 2906 2909 2909 2909 2908 2907